DW0664 Weather Reports


time (UTC)temp
C
wind
direction
speed
KPH
gust
KPH
rain 1hr
cm
rain 24hr
cm
rain mn
cm
humidity
%
barometer
mb
20260506182432 21 57 0.0 1.6 0.00 0.00 0.00 79 1012.6
20260506181929 22 61 0.0 1.6 0.00 0.00 0.00 78 1013.0
20260506181427 22 48 0.0 3.2 0.00 0.00 0.00 78 1012.9
20260506180923 21 59 1.6 4.8 0.00 0.00 0.00 79 1012.8
20260506180420 22 60 1.6 4.8 0.00 0.00 0.00 78 1013.1
20260506175917 22 70 1.6 3.2 0.00 0.00 0.00 78 1013.1
20260506175414 21 50 1.6 3.2 0.00 0.00 0.00 79 1013.2
20260506174910 21 54 0.0 3.2 0.00 0.00 0.00 81 1013.1
20260506174408 20 46 0.0 9.7 0.00 0.00 0.00 82 1013.0
20260506173905 20 55 3.2 9.7 0.00 0.00 0.00 82 1013.3
20260506173402 20 63 0.0 6.4 0.00 0.00 0.00 84 1013.6
20260506172859 20 51 1.6 3.2 0.00 0.00 0.00 86 1013.9
20260506172355 18 69 1.6 9.7 0.00 0.00 0.00 89 1014.0
20260506171853 18 84 1.6 3.2 0.00 0.00 0.00 90 1014.0
20260506171350 18 342 1.6 3.2 0.00 0.00 0.00 90 1014.1
20260506170848 19 35 1.6 4.8 0.00 0.00 0.00 90 1014.4
20260506170344 19 63 1.6 4.8 0.00 0.00 0.00 89 1014.6
20260506165843 20 59 0.0 3.2 0.00 0.00 0.00 87 1014.5
20260506165340 20 44 1.6 3.2 0.00 0.00 0.00 86 1014.6
20260506164836 21 103 3.2 4.8 0.00 0.00 0.00 85 1014.7
20260506164333 21 7 3.2 3.2 0.00 0.00 0.00 85 1014.5
20260506163831 21 11 1.6 6.4 0.00 0.00 0.00 85 1014.5
20260506163325 23 58 6.4 12.9 0.00 0.00 0.00 82 1014.4
20260506162821 26 20 6.4 6.4 0.00 0.00 0.00 85 1014.0
20260506162320 26 39 0.0 1.6 0.00 0.00 0.00 86 1013.9
20260506161817 26 58 0.0 0.0 0.00 0.00 0.00 86 1013.7
20260506161314 26 60 0.0 1.6 0.00 0.00 0.00 85 1013.6
20260506160812 26 135 0.0 1.6 0.00 0.00 0.00 85 1013.7
20260506160308 26 73 0.0 0.0 0.00 0.00 0.00 85 1013.3
20260506155807 26 69 0.0 0.0 0.00 0.00 0.00 85 1013.1
20260506155306 26 67 0.0 0.0 0.00 0.00 0.00 85 1012.9
20260506153415 26 265 0.0 3.2 0.00 0.00 0.00 84 1012.7
20260506152913 26 98 1.6 1.6 0.00 0.00 0.00 84 1012.5
20260506152410 26 70 0.0 3.2 0.00 0.00 0.00 84 1012.3
20260506151908 26 70 0.0 1.6 0.00 0.00 0.00 84 1012.7
20260506151405 26 76 0.0 1.6 0.00 0.00 0.00 84 1012.6
20260506150902 26 67 0.0 1.6 0.00 0.00 0.00 85 1012.7
20260506150358 26 67 0.0 0.0 0.00 0.00 0.00 85 1012.4
20260506145855 26 57 0.0 4.8 0.00 0.00 0.00 86 1012.5
20260506145351 26 73 1.6 1.6 0.00 0.00 0.00 86 1012.4
20260506144849 26 77 0.0 1.6 0.00 0.00 0.00 87 1012.4
20260506144345 25 71 0.0 1.6 0.00 0.00 0.00 87 1012.6
20260506143844 25 75 0.0 1.6 0.00 0.00 0.00 88 1012.5
20260506143341 25 81 0.0 1.6 0.00 0.00 0.00 88 1012.7
20260506142839 25 70 0.0 1.6 0.00 0.00 0.00 88 1012.6
20260506142337 25 68 0.0 0.0 0.00 0.00 0.00 89 1012.4
20260506141835 25 69 0.0 0.0 0.00 0.00 0.00 89 1012.3
20260506141332 25 73 0.0 1.6 0.00 0.00 0.00 89 1012.0
20260506140830 25 76 1.6 3.2 0.00 0.00 0.00 89 1012.1
20260506140327 25 94 0.0 3.2 0.00 0.00 0.00 90 1011.8
20260506135824 25 82 1.6 3.2 0.00 0.00 0.00 90 1011.8
20260506135320 25 82 3.2 4.8 0.00 0.00 0.00 90 1011.9
20260506134817 25 77 0.0 1.6 0.00 0.00 0.00 91 1011.9
20260506134313 24 81 0.0 0.0 0.00 0.00 0.00 91 1011.9
20260506133810 24 67 0.0 3.2 0.00 0.00 0.00 91 1011.9
20260506133307 24 82 1.6 6.4 0.00 0.00 0.00 92 1011.8
20260506132804 24 76 0.0 1.6 0.00 0.00 0.00 92 1011.8
20260506132301 24 65 0.0 1.6 0.00 0.00 0.00 93 1011.6
20260506131759 24 70 0.0 1.6 0.00 0.00 0.00 93 1011.7
20260506131255 24 98 0.0 1.6 0.00 0.00 0.00 93 1011.8
20260506130752 24 76 0.0 0.0 0.00 0.00 0.00 93 1011.6
20260506130249 24 85 0.0 1.6 0.00 0.00 0.00 93 1011.9
20260506125747 24 70 0.0 1.6 0.00 0.00 0.00 93 1011.8
20260506125244 24 115 1.6 3.2 0.00 0.00 0.00 93 1011.7
20260506124743 24 71 0.0 0.0 0.00 0.00 0.00 93 1011.6
20260506124240 23 70 0.0 0.0 0.00 0.00 0.00 93 1011.6
20260506123737 23 71 0.0 1.6 0.00 0.00 0.00 93 1011.5
20260506123236 23 84 0.0 1.6 0.00 0.00 0.00 93 1011.6
20260506122732 23 67 0.0 1.6 0.00 0.00 0.00 94 1011.5
20260506122229 23 68 0.0 0.0 0.00 0.00 0.00 94 1011.8
20260506121728 23 69 0.0 3.2 0.00 0.00 0.00 94 1011.6
20260506121224 23 70 0.0 0.0 0.00 0.00 0.00 94 1011.7
20260506120722 23 59 0.0 0.0 0.00 0.00 0.00 94 1011.6
20260506120219 23 69 0.0 0.0 0.00 0.00 0.00 94 1011.6
20260506115717 23 69 0.0 0.0 0.00 0.00 0.00 94 1011.6
20260506115215 23 70 0.0 0.0 0.00 0.00 0.00 94 1011.5
20260506114712 23 68 0.0 0.0 0.00 0.00 0.00 94 1011.3
20260506114210 23 69 0.0 0.0 0.00 0.00 0.00 94 1011.4
20260506113708 23 70 0.0 0.0 0.00 0.00 0.00 94 1011.4
20260506113205 23 72 0.0 0.0 0.00 0.00 0.00 94 1011.3
20260506112701 23 67 0.0 0.0 0.00 0.00 0.00 93 1011.4
20260506112159 23 71 0.0 0.0 0.00 0.00 0.00 93 1011.3
20260506111656 23 70 0.0 0.0 0.00 0.00 0.00 93 1011.3
20260506111154 23 69 0.0 0.0 0.00 0.00 0.00 93 1011.1
20260506110651 23 69 0.0 3.2 0.00 0.00 0.00 93 1011.1
20260506110148 23 61 0.0 0.0 0.00 0.00 0.00 93 1011.1
20260506105645 23 58 0.0 3.2 0.00 0.00 0.00 93 1011.0
20260506105141 23 90 0.0 1.6 0.00 0.00 0.00 93 1010.9
20260506104640 23 78 0.0 1.6 0.00 0.00 0.00 93 1010.9
20260506104137 23 69 0.0 0.0 0.00 0.00 0.00 93 1010.7
20260506103634 23 77 1.6 1.6 0.00 0.00 0.00 92 1010.8
20260506103131 23 70 0.0 0.0 0.00 0.00 0.00 92 1010.7
20260506102629 23 81 0.0 1.6 0.00 0.00 0.00 92 1010.7
20260506102126 23 76 0.0 1.6 0.00 0.00 0.00 93 1010.8
20260506101623 23 69 0.0 0.0 0.00 0.00 0.00 93 1010.5
20260506101120 23 69 0.0 0.0 0.00 0.00 0.00 92 1010.4
20260506100618 23 71 0.0 1.6 0.00 0.00 0.00 92 1010.5
20260506100116 23 75 1.6 1.6 0.00 0.00 0.00 92 1010.4
20260506095615 23 76 0.0 1.6 0.00 0.00 0.00 92 1010.4
20260506095111 23 55 0.0 4.8 0.00 0.00 0.00 92 1010.3
20260506094608 23 76 0.0 1.6 0.00 0.00 0.00 92 1010.0
20260506094106 23 85 0.0 1.6 0.00 0.00 0.00 92 1010.3
20260506093604 23 111 0.0 0.0 0.00 0.00 0.00 93 1010.4
20260506093101 23 74 0.0 1.6 0.00 0.00 0.00 92 1010.4
20260506092559 23 52 0.0 0.0 0.00 0.00 0.00 92 1010.2
20260506092055 23 73 0.0 1.6 0.00 0.00 0.00 92 1010.3
20260506091554 23 67 0.0 1.6 0.00 0.00 0.00 92 1010.3
20260506091051 23 78 0.0 1.6 0.00 0.00 0.00 92 1010.3
20260506090549 23 72 0.0 0.0 0.00 0.00 0.00 92 1010.2
20260506090045 23 69 0.0 1.6 0.00 0.00 0.00 92 1010.2
20260506085542 23 76 0.0 1.6 0.00 0.00 0.00 92 1010.1
20260506085038 23 68 0.0 1.6 0.00 0.00 0.00 92 1010.3
20260506084535 23 78 1.6 1.6 0.00 0.00 0.00 92 1010.1
20260506084031 23 65 0.0 1.6 0.00 0.00 0.00 92 1010.1
20260506083529 23 98 1.6 1.6 0.00 0.00 0.00 92 1010.0
20260506083026 23 75 1.6 1.6 0.00 0.00 0.00 92 1010.1
20260506082523 23 101 3.2 6.4 0.00 0.00 0.00 92 1010.0
20260506082018 23 58 1.6 1.6 0.00 0.00 0.00 92 1010.0
20260506081517 23 82 3.2 4.8 0.00 0.00 0.00 92 1010.2
20260506081014 23 90 1.6 1.6 0.00 0.00 0.00 92 1010.0
20260506080511 23 76 1.6 4.8 0.00 0.00 0.00 92 1009.9
20260506073455 23 81 1.6 1.6 0.00 0.00 0.00 92 1010.3
20260506072952 23 118 3.2 6.4 0.00 0.00 0.00 92 1010.3
20260506072449 23 127 4.8 6.4 0.00 0.00 0.00 93 1010.3
20260506071947 23 95 3.2 6.4 0.00 0.00 0.00 93 1010.5
20260506071445 23 97 1.6 12.9 0.00 0.00 0.00 93 1010.4
20260506070941 23 97 4.8 12.9 0.00 0.00 0.00 93 1010.2
20260506070438 23 66 1.6 6.4 0.00 0.00 0.00 93 1010.1
20260506062416 23 87 1.6 3.2 0.00 0.00 0.00 92 1010.4
20260506061912 23 92 6.4 12.9 0.00 0.00 0.00 92 1010.5
20260506061408 23 134 1.6 4.8 0.00 0.00 0.00 92 1010.5
20260506060906 23 59 3.2 12.9 0.00 0.00 0.00 92 1010.7
20260506060404 23 111 4.8 9.7 0.00 0.00 0.00 92 1010.8
20260506051336 24 109 3.2 11.3 0.00 0.00 0.00 90 1010.6
20260506050834 24 118 3.2 6.4 0.00 0.00 0.00 90 1010.5
20260506050331 24 112 0.0 4.8 0.00 0.00 0.00 90 1010.6
20260506044821 24 115 4.8 9.7 0.00 0.00 0.00 89 1010.4
20260506044319 24 87 1.6 9.7 0.00 0.00 0.00 89 1010.6
20260506043816 24 94 6.4 6.4 0.00 0.00 0.00 89 1010.4
20260506043313 24 114 3.2 4.8 0.00 0.00 0.00 89 1010.5
20260506042812 25 190 1.6 3.2 0.00 0.00 0.00 89 1010.4
20260506042310 25 91 3.2 4.8 0.00 0.00 0.00 88 1010.5
20260506041808 25 72 0.0 3.2 0.00 0.00 0.00 88 1010.5
20260506041305 25 93 1.6 4.8 0.00 0.00 0.00 88 1010.4
20260506040802 25 67 1.6 9.7 0.00 0.00 0.00 88 1010.4
20260506040259 25 66 1.6 4.8 0.00 0.00 0.00 88 1010.3
20260506035756 25 102 1.6 4.8 0.00 0.00 0.00 87 1010.3
20260506035253 25 125 1.6 4.8 0.00 0.00 0.00 87 1010.0
20260506034750 25 165 3.2 4.8 0.00 0.00 0.00 86 1009.8
20260506034247 25 152 6.4 11.3 0.00 0.00 0.00 86 1010.0
20260506033744 25 125 1.6 6.4 0.00 0.00 0.00 86 1009.8
20260506033241 25 196 1.6 3.2 0.00 0.00 0.00 86 1009.9
20260506032738 25 155 3.2 4.8 0.00 0.00 0.00 86 1009.7
20260506032235 25 73 1.6 1.6 0.00 0.00 0.00 85 1009.8
20260506031732 25 144 12.9 17.7 0.00 0.00 0.00 85 1009.7
20260506031229 25 62 4.8 6.4 0.00 0.00 0.00 85 1009.6
20260506030728 25 98 1.6 6.4 0.00 0.00 0.00 84 1009.5
20260506030225 25 111 1.6 4.8 0.00 0.00 0.00 84 1009.4
20260506025721 25 66 1.6 3.2 0.00 0.00 0.00 84 1009.6
20260506025217 25 111 3.2 6.4 0.00 0.00 0.00 84 1009.4
20260506024714 25 104 4.8 9.7 0.00 0.00 0.00 84 1009.3
20260506024211 25 169 4.8 6.4 0.00 0.00 0.00 84 1009.3
20260506023708 25 61 3.2 6.4 0.00 0.00 0.00 84 1009.3
20260506023205 25 123 1.6 3.2 0.00 0.00 0.00 84 1009.0
20260506022702 25 113 3.2 3.2 0.00 0.00 0.00 84 1009.1
20260506022159 25 89 1.6 3.2 0.00 0.00 0.00 84 1009.2
20260506021657 25 77 3.2 4.8 0.00 0.00 0.00 84 1009.0
20260506021154 25 79 1.6 3.2 0.00 0.00 0.00 84 1009.1
20260506020651 25 134 1.6 4.8 0.00 0.00 0.00 84 1009.1
20260506020149 25 86 1.6 3.2 0.00 0.00 0.00 84 1008.9
20260506015646 25 82 1.6 6.4 0.00 0.00 0.00 83 1009.1
20260506015143 25 72 0.0 1.6 0.00 0.00 0.00 83 1009.2
20260506014641 25 70 0.0 0.0 0.00 0.00 0.00 83 1008.9
20260506014136 25 70 0.0 3.2 0.00 0.00 0.00 83 1008.9
20260506013634 25 67 1.6 1.6 0.00 0.00 0.00 83 1009.0
20260506013131 26 91 0.0 4.8 0.00 0.00 0.00 83 1009.0
20260506012627 26 105 0.0 3.2 0.00 0.00 0.00 82 1008.5
20260506012124 26 72 0.0 1.6 0.00 0.00 0.00 82 1008.6
20260506011622 26 81 0.0 1.6 0.00 0.00 0.00 81 1008.4
20260506011117 26 59 0.0 3.2 0.00 0.00 0.00 81 1008.3
20260506010611 26 73 1.6 4.8 0.00 0.00 0.00 81 1008.1
20260506010107 26 75 1.6 11.3 0.00 0.00 0.00 80 1008.1
20260506005604 26 198 3.2 11.3 0.00 0.00 0.00 80 1007.8
20260506005100 26 170 0.0 4.8 0.00 0.00 0.00 80 1008.1
20260506004558 26 76 1.6 6.4 0.00 0.00 0.00 80 1007.9
20260506004054 26 83 0.0 3.2 0.00 0.00 0.00 79 1007.9
20260506003551 26 93 1.6 6.4 0.00 0.00 0.00 79 1007.9
20260506003047 27 90 0.0 4.8 0.00 0.00 0.00 78 1008.0
20260506002543 27 109 1.6 6.4 0.00 0.00 0.00 78 1007.8
20260506002039 27 144 3.2 6.4 0.00 0.00 0.00 78 1007.8
20260506001535 27 102 3.2 6.4 0.00 0.00 0.00 77 1007.9
20260506001033 27 120 1.6 3.2 0.00 0.00 0.00 77 1008.0
20260506000530 27 22 6.4 9.7 0.00 0.00 0.00 77 1008.1
20260506000028 27 84 8.0 14.5 0.00 0.00 0.00 77 1008.3
20260505235526 27 78 0.0 3.2 0.00 0.00 0.00 77 1007.8
20260505235022 27 88 1.6 4.8 0.00 0.00 0.00 76 1007.9
20260505234519 27 43 1.6 4.8 0.00 0.00 0.00 76 1007.9
20260505234016 27 104 1.6 6.4 0.00 0.00 0.00 75 1007.8
20260505233514 28 84 3.2 6.4 0.00 0.00 0.00 75 1007.9
20260505233011 28 54 3.2 3.2 0.00 0.00 0.00 75 1007.8
20260505232509 28 82 1.6 4.8 0.00 0.00 0.00 74 1007.8
20260505232006 28 80 4.8 9.7 0.00 0.00 0.00 73 1007.7
20260505231503 28 94 1.6 4.8 0.00 0.00 0.00 74 1007.9
20260505231002 28 75 6.4 12.9 0.00 0.00 0.00 74 1007.7
20260505230459 28 144 3.2 6.4 0.00 0.00 0.00 73 1007.6
20260505225955 28 106 1.6 3.2 0.00 0.00 0.00 73 1007.6
20260505225452 29 152 4.8 4.8 0.00 0.00 0.00 71 1007.9
20260505224948 29 78 1.6 4.8 0.00 0.00 0.00 72 1007.9
20260505224445 29 71 0.0 4.8 0.00 0.00 0.00 71 1008.0
20260505223942 29 351 1.6 4.8 0.00 0.00 0.00 71 1007.9
20260505223439 29 74 1.6 3.2 0.00 0.00 0.00 71 1008.0
20260505222935 29 57 0.0 3.2 0.00 0.00 0.00 72 1007.9
20260505222432 29 96 1.6 4.8 0.00 0.00 0.00 72 1008.0
20260505221928 30 60 6.4 9.7 0.00 0.00 0.00 71 1007.8
20260505221425 30 80 1.6 4.8 0.00 0.00 0.00 69 1007.8
20260505220922 30 76 3.2 4.8 0.00 0.00 0.00 69 1008.0
20260505220419 30 120 3.2 3.2 0.00 0.00 0.00 70 1007.9
20260505215917 30 147 3.2 4.8 0.00 0.00 0.00 69 1007.8
20260505215415 30 80 0.0 1.6 0.00 0.00 0.00 70 1008.0
20260505214913 30 261 1.6 3.2 0.00 0.00 0.00 70 1008.2
20260505214410 30 75 3.2 3.2 0.00 0.00 0.00 70 1008.0
20260505213907 29 70 0.0 4.8 0.00 0.00 0.00 72 1008.0
20260505213405 28 109 1.6 4.8 0.00 0.00 0.00 72 1008.1
20260505212901 29 106 4.8 11.3 0.00 0.00 0.00 71 1008.3
20260505212358 30 143 4.8 6.4 0.00 0.00 0.00 70 1008.3
20260505211854 30 11 1.6 1.6 0.00 0.00 0.00 68 1008.1
20260505211351 30 97 3.2 6.4 0.00 0.00 0.00 68 1008.2
20260505210848 30 91 1.6 6.4 0.00 0.00 0.00 69 1008.5
20260505210345 29 79 1.6 9.7 0.00 0.00 0.00 72 1008.5
20260505205841 29 81 3.2 4.8 0.00 0.00 0.00 71 1008.8
20260505205340 29 72 1.6 4.8 0.00 0.00 0.00 71 1008.7
20260505204837 30 86 3.2 4.8 0.00 0.00 0.00 69 1008.8
20260505204334 31 225 6.4 6.4 0.00 0.00 0.00 67 1008.8
20260505203831 30 12 1.6 1.6 0.00 0.00 0.00 69 1009.0
20260505203328 30 251 1.6 3.2 0.00 0.00 0.00 70 1008.9
20260505202824 29 67 0.0 4.8 0.00 0.00 0.00 72 1009.1
20260505202320 29 71 0.0 3.2 0.00 0.00 0.00 71 1009.1
20260505201817 29 225 1.6 3.2 0.00 0.00 0.00 71 1009.1
20260505201315 30 77 1.6 6.4 0.00 0.00 0.00 70 1009.2
20260505200813 30 94 1.6 3.2 0.00 0.00 0.00 68 1009.4
20260505200309 31 72 1.6 1.6 0.00 0.00 0.00 69 1009.4
20260505195804 30 53 1.6 3.2 0.00 0.00 0.00 68 1009.5
20260505195305 30 78 1.6 11.3 0.00 0.00 0.00 69 1009.4
20260505194759 30 83 3.2 3.2 0.00 0.00 0.00 68 1009.6
20260505194256 30 168 3.2 4.8 0.00 0.00 0.00 71 1009.7
20260505193756 30 181 1.6 4.8 0.00 0.00 0.00 70 1009.8
20260505193254 29 49 1.6 6.4 0.00 0.00 0.00 71 1009.7
20260505192752 28 89 1.6 3.2 0.00 0.00 0.00 72 1009.9
20260505192250 29 65 0.0 3.2 0.00 0.00 0.00 72 1009.9
20260505191748 28 89 3.2 4.8 0.00 0.00 0.00 72 1009.9
20260505191246 28 100 1.6 3.2 0.00 0.00 0.00 74 1010.1
20260505190742 28 110 1.6 4.8 0.00 0.00 0.00 74 1010.0
20260505190237 28 29 3.2 6.4 0.00 0.00 0.00 73 1009.9
20260505185733 28 80 1.6 4.8 0.00 0.00 0.00 73 1010.0
20260505185230 28 134 3.2 4.8 0.00 0.00 0.00 73 1009.9
20260505184726 28 100 1.6 6.4 0.00 0.00 0.00 73 1010.0
20260505184224 28 19 1.6 3.2 0.00 0.00 0.00 74 1010.0
20260505183720 28 18 0.0 1.6 0.00 0.00 0.00 73 1010.0
20260505183218 28 304 3.2 4.8 0.00 0.00 0.00 71 1009.9
20260505182714 29 72 1.6 3.2 0.00 0.00 0.00 71 1010.0